Port Lavaca, TX

11:58 PM CST on November 18, 2017 (GMT -0600)
Port Lavaca

Weather History for KPKV - November, 2013

Change the Weather History Date:

Friday, November 29, 2013

  Actual Average (KVCT) Record (KVCT)
Temperature  
Mean Temperature 54 °F -  
Max Temperature 64 °F 69 °F 87 °F (1916)
Min Temperature 44 °F 46 °F 24 °F (1976)
Degree Days  
Heating Degree Days 11    
Growing Degree Days 4 (Base 50)    
Moisture  
Dew Point 46 °F    
Average Humidity 80    
Maximum Humidity 94    
Minimum Humidity 57    
Precipitation  
Precipitation 0.00 in - - ()
Sea Level Pressure  
Sea Level Pressure 30.42 in    
Wind  
Wind Speed 10 mph (ENE)    
Max Wind Speed 16 mph    
Max Gust Speed 21 mph    
Visibility 10 miles    
Events      
Averages and records for this station are not official NWS values.
T = Trace of Precipitation, MM = Missing Value Source: NWS Daily Summary

Daily Weather History Graph

Daily Weather History Graph

Search for Another Location

Airport or City:

Trip Planner

Search our weather history database for the weather conditions in past years. The results will help you decide how hot, cold, wet, or windy it might be!

Date:

Astronomy

Nov. 29, 2013 Rise Set
Actual Time 7:00 AM CST 5:29 PM CST
Civil Twilight 6:35 AM CST 5:54 PM CST
Nautical Twilight 6:06 AM CST 6:24 PM CST
Astronomical Twilight 5:37 AM CST 6:52 PM CST
Moon 3:23 AM CST (11/29) 3:01 PM CST (11/29)
Length of Visible Light 11h 19m
Length of Day
10h 28m
Waning Crescent, 14% of the Moon is Illuminated
Nov 29
Waning Crescent
Dec 2
New
Dec 9
First Quarter
Dec 17
Full
Dec 25
Last Quarter

Hourly Weather History & Observations

Time (CST) Temp. Windchill Dew Point Humidity Pressure Visibility Wind Dir Wind Speed Gust Speed Precip Events Conditions
12:15 AM 46.4 °F 42.4 °F 44.6 °F 93% 30.43 in 10.0 mi NNE 8.1 mph - N/A   Clear
12:35 AM 46.4 °F 42.4 °F 44.6 °F 93% 30.43 in 10.0 mi NNE 8.1 mph - N/A   Clear
12:55 AM 46.6 °F - 44.8 °F 93% 30.42 in 10.0 mi NE 8.1 mph - N/A   Clear
1:15 AM 46.4 °F 41.9 °F 44.8 °F 94% 30.42 in 10.0 mi NNE 9.2 mph - N/A   Clear
1:35 AM 46.4 °F 41.9 °F 44.8 °F 94% 30.42 in 10.0 mi NE 9.2 mph - N/A   Clear
1:55 AM 46.8 °F - 45.1 °F 94% 30.42 in 10.0 mi NE 10.4 mph - N/A   Scattered Clouds
2:15 AM 46.8 °F - 45.0 °F 93% 30.42 in 10.0 mi NE 10.4 mph - N/A   Mostly Cloudy
2:35 AM 46.6 °F - 44.8 °F 93% 30.41 in 10.0 mi NE 11.5 mph - N/A   Scattered Clouds
2:55 AM 46.4 °F 41.9 °F 44.6 °F 93% 30.41 in 10.0 mi NE 9.2 mph - N/A   Scattered Clouds
3:15 AM 46.8 °F - 45.0 °F 93% 30.41 in 10.0 mi NE 10.4 mph - N/A   Mostly Cloudy
3:35 AM 46.6 °F - 44.8 °F 93% 30.41 in 10.0 mi NE 10.4 mph - N/A   Mostly Cloudy
3:55 AM 46.8 °F - 44.8 °F 93% 30.41 in 10.0 mi NE 11.5 mph - N/A   Scattered Clouds
4:15 AM 46.6 °F - 44.6 °F 93% 30.41 in 10.0 mi NE 10.4 mph - N/A   Scattered Clouds
4:35 AM 46.4 °F 41.5 °F 44.1 °F 92% 30.41 in 10.0 mi NE 10.4 mph - N/A   Scattered Clouds
4:55 AM 46.0 °F 40.6 °F 43.7 °F 92% 30.42 in 10.0 mi NE 11.5 mph - N/A   Scattered Clouds
5:15 AM 45.9 °F 40.4 °F 43.7 °F 92% 30.42 in 10.0 mi NE 11.5 mph - N/A   Scattered Clouds
5:35 AM 45.5 °F 40.8 °F 43.2 °F 92% 30.42 in 10.0 mi NE 9.2 mph - N/A   Clear
5:55 AM 45.0 °F 39.7 °F 42.8 °F 92% 30.43 in 10.0 mi NE 10.4 mph - N/A   Clear
6:15 AM 45.0 °F 40.1 °F 42.8 °F 92% 30.43 in 10.0 mi NE 9.2 mph - N/A   Clear
6:35 AM 44.8 °F 39.9 °F 42.8 °F 93% 30.43 in 10.0 mi NE 9.2 mph - N/A   Clear
6:55 AM 45.1 °F 40.3 °F 43.0 °F 92% 30.44 in 10.0 mi NE 9.2 mph - N/A   Scattered Clouds
7:15 AM 45.5 °F 40.8 °F 43.2 °F 92% 30.44 in 10.0 mi NE 9.2 mph - N/A   Overcast
7:35 AM 46.0 °F 41.4 °F 43.3 °F 90% 30.45 in 10.0 mi NE 9.2 mph - N/A   Overcast
7:55 AM 46.6 °F - 43.3 °F 88% 30.46 in 10.0 mi ENE 4.6 mph - N/A   Overcast
8:15 AM 47.5 °F - 42.8 °F 84% 30.45 in 10.0 mi ENE 9.2 mph - N/A   Overcast
8:35 AM 48.4 °F - 43.2 °F 82% 30.46 in 10.0 mi ENE 8.1 mph - N/A   Overcast
8:55 AM 50.4 °F - 45.0 °F 82% 30.46 in 10.0 mi ENE 10.4 mph - N/A   Overcast
9:15 AM 52.0 °F - 45.7 °F 79% 30.47 in 10.0 mi ENE 11.5 mph - N/A   Overcast
9:35 AM 54.0 °F - 46.2 °F 75% 30.47 in 10.0 mi ENE 12.7 mph 19.6 mph N/A   Scattered Clouds
9:55 AM 55.4 °F - 46.9 °F 73% 30.48 in 10.0 mi ENE 12.7 mph - N/A   Clear
10:15 AM 56.7 °F - 45.9 °F 67% 30.47 in 10.0 mi ENE 16.1 mph - N/A   Clear
10:35 AM 58.3 °F - 46.6 °F 65% 30.47 in 10.0 mi East 13.8 mph 20.7 mph N/A   Clear
10:55 AM 59.0 °F - 46.8 °F 64% 30.46 in 10.0 mi East 15.0 mph - N/A   Clear
11:15 AM 59.7 °F - 47.5 °F 64% 30.46 in 10.0 mi East 16.1 mph - N/A   Clear
11:35 AM 61.0 °F - 48.2 °F 63% 30.46 in 10.0 mi East 12.7 mph - N/A   Clear
11:55 AM 62.2 °F - 49.1 °F 62% 30.45 in 10.0 mi East 12.7 mph - N/A   Clear
12:15 PM 62.1 °F - 48.4 °F 61% 30.44 in 10.0 mi ENE 11.5 mph - N/A   Scattered Clouds
12:35 PM 61.3 °F - 48.7 °F 63% 30.44 in 10.0 mi ENE 10.4 mph - N/A   Mostly Cloudy
12:55 PM 61.7 °F - 48.6 °F 62% 30.43 in 10.0 mi East 10.4 mph - N/A   Overcast
1:15 PM 62.2 °F - 48.6 °F 61% 30.42 in 10.0 mi East 8.1 mph - N/A   Overcast
1:35 PM 63.5 °F - 48.9 °F 59% 30.41 in 10.0 mi East 11.5 mph - N/A   Overcast
1:55 PM 64.2 °F - 48.7 °F 57% 30.41 in 10.0 mi ENE 11.5 mph - N/A   Mostly Cloudy
2:15 PM 62.8 °F - 49.3 °F 61% 30.40 in 10.0 mi ENE 9.2 mph - N/A   Overcast
2:35 PM 61.0 °F - 47.3 °F 61% 30.39 in 10.0 mi ESE 10.4 mph - N/A   Overcast
2:55 PM 59.4 °F - 46.4 °F 62% 30.39 in 10.0 mi ESE 11.5 mph - N/A   Overcast
3:15 PM 58.3 °F - 46.0 °F 64% 30.38 in 10.0 mi ESE 12.7 mph - N/A   Overcast
3:35 PM 58.3 °F - 45.1 °F 62% 30.38 in 10.0 mi ESE 13.8 mph - N/A   Overcast
3:55 PM 58.6 °F - 44.6 °F 60% 30.38 in 10.0 mi ESE 13.8 mph - N/A   Overcast
4:15 PM 58.1 °F - 46.2 °F 65% 30.38 in 10.0 mi ESE 12.7 mph - N/A   Overcast
4:35 PM 57.2 °F - 46.2 °F 67% 30.38 in 10.0 mi ESE 12.7 mph 17.3 mph N/A   Overcast
4:55 PM 56.5 °F - 46.9 °F 70% 30.39 in 10.0 mi ESE 9.2 mph - N/A   Overcast
5:15 PM 55.8 °F - 47.5 °F 74% 30.38 in 10.0 mi East 9.2 mph - N/A   Overcast
5:35 PM 55.4 °F - 47.5 °F 75% 30.38 in 10.0 mi East 9.2 mph - N/A   Overcast
5:55 PM 55.0 °F - 47.3 °F 75% 30.38 in 10.0 mi East 9.2 mph - N/A   Overcast
6:15 PM 54.5 °F - 47.3 °F 77% 30.38 in 10.0 mi East 9.2 mph - N/A   Mostly Cloudy
6:35 PM 54.7 °F - 47.8 °F 78% 30.38 in 10.0 mi East 12.7 mph - N/A   Mostly Cloudy
6:55 PM 54.0 °F - 47.3 °F 78% 30.38 in 10.0 mi ESE 13.8 mph - N/A   Scattered Clouds
7:15 PM 53.6 °F - 47.3 °F 79% 30.39 in 10.0 mi East 11.5 mph - N/A   Scattered Clouds
7:35 PM 53.6 °F - 47.3 °F 79% 30.40 in 10.0 mi ESE 10.4 mph - N/A   Mostly Cloudy
7:55 PM 53.4 °F - 47.3 °F 80% 30.41 in 10.0 mi East 9.2 mph - N/A   Mostly Cloudy
8:15 PM 53.6 °F - 47.3 °F 79% 30.42 in 10.0 mi East 6.9 mph - N/A   Overcast
8:35 PM 54.1 °F - 47.3 °F 78% 30.42 in 10.0 mi East 8.1 mph - N/A   Overcast
8:55 PM 53.8 °F - 47.7 °F 80% 30.42 in 10.0 mi East 6.9 mph - N/A   Overcast
9:15 PM 52.7 °F - 47.3 °F 82% 30.41 in 10.0 mi East 6.9 mph - N/A   Mostly Cloudy
9:35 PM 51.8 °F - 46.8 °F 83% 30.40 in 10.0 mi East 8.1 mph - N/A   Scattered Clouds
9:55 PM 50.9 °F - 46.6 °F 85% 30.40 in 10.0 mi East 5.8 mph - N/A   Clear
10:15 PM 50.9 °F - 46.8 °F 86% 30.40 in 10.0 mi East 5.8 mph - N/A   Clear
10:35 PM 50.5 °F - 46.6 °F 86% 30.39 in 10.0 mi East 5.8 mph - N/A   Scattered Clouds
10:55 PM 50.0 °F - 46.4 °F 87% 30.39 in 10.0 mi ENE 3.5 mph - N/A   Clear
11:15 PM 49.1 °F - 45.9 °F 89% 30.39 in 10.0 mi ENE 4.6 mph - N/A   Clear
11:35 PM 47.7 °F - 45.1 °F 91% 30.39 in 10.0 mi NE 3.5 mph - N/A   Clear
11:55 PM 48.0 °F - 45.5 °F 91% 30.38 in 10.0 mi ENE 5.8 mph - N/A   Clear